Location: Ar Ranvel
(48.3000°N, 4.8833°W)
Time: 14:34:34
(UTC+00:00)

SL-16 R/B - Pass Details

Date: 16 June 2021
Orbit: 842 x 847 km, 71.0° (Epoch: 29 July)

Event Time Altitude Azimuth Distance (km) Brightness Sun altitude
Exits shadow 23:20:18 14° 116° (ESE) 2,220 4.0 -17.1°
Maximum altitude 23:21:55 15° 97° (E) 2,124 4.1 -17.1°
Drops below altitude 10° 23:25:00 10° 64° (ENE) 2,471 4.8 -17.3°
Sets 23:28:29 0° 42° (NE) 3,411 5.9 -17.4°
